Change the Weather History Date:

Sunday, December 23, 2012

  Actual Average Record
Temperature  
Mean Temperature 30 °F 25 °F  
Max Temperature 33 °F 31 °F 59 °F (1990)
Min Temperature 26 °F 19 °F -6 °F (1989)
Degree Days  
Heating Degree Days 35 40  
Month to date heating degree days 669 841  
Since 1 July heating degree days 2202 2416  
Cooling Degree Days 0 0  
Month to date cooling degree days 0 0  
Year to date cooling degree days 548 381  
Moisture  
Dew Point 18 °F    
Average Humidity 61    
Maximum Humidity 81    
Minimum Humidity 41    
Precipitation  
Precipitation T in 0.09 in 0.72 in (2007)
Month to date precipitation 3.89 2.18  
Year to date precipitation 38.03 38.65  
Snow  
Snow 0.20 in 0.70 in 6.30 in (1982)
Month to date snowfall 3.5 12.7  
Since 1 July snowfall 8.1 19.5  
Snow Depth 3.00 in    
Sea Level Pressure  
Sea Level Pressure 29.86 in    
Wind  
Wind Speed 10 mph (West)    
Max Wind Speed 18 mph    
Max Gust Speed 23 mph    
Visibility 9 miles    
Events Snow    
T = Trace of Precipitation, MM = Missing Value Source: NWS Daily Summary

Daily Weather History Graph

Daily Weather History Graph

Search for Another Location

Airport or City:

Trip Planner

Search our weather history database for the weather conditions in past years. The results will help you decide how hot, cold, wet, or windy it might be!

Date:

Astronomy

Dec. 23, 2012 Rise Set
Actual Time 7:30 AM EST 4:36 PM EST
Civil Twilight 6:58 AM EST 5:08 PM EST
Nautical Twilight 6:23 AM EST 5:43 PM EST
Astronomical Twilight 5:49 AM EST 6:17 PM EST
Moon 1:27 PM EST (12/23) 3:08 AM EST (12/23)
Length of Visible Light 10h 09m
Length of Day
9h 05m
Waxing Gibbous, 81% of the Moon is Illuminated
Dec 23
Waxing Gibbous
Dec 28
Full
Jan 4
Last Quarter
Jan 11
New
Jan 18
First Quarter

Hourly Weather History & Observations

Time (EST) Temp. Windchill Dew Point Humidity Pressure Visibility Wind Dir Wind Speed Gust Speed Precip Events Conditions
12:10 AM 26.6 °F 17.5 °F 19.4 °F 74% 29.81 in 2.0 mi WNW 9.2 mph - 0.00 in Snow Light Snow
12:19 AM 26.6 °F 15.7 °F 19.4 °F 74% 29.81 in 4.0 mi WNW 12.7 mph 18.4 mph 0.00 in Snow Light Snow
12:53 AM 27.0 °F 17.3 °F 19.9 °F 75% 29.87 in 9.0 mi West 10.4 mph - 0.00 in Snow Light Snow
1:53 AM 27.0 °F 16.7 °F 19.9 °F 75% 29.88 in 10.0 mi West 11.5 mph - 0.00 in Snow Light Snow
2:03 AM 26.6 °F 15.7 °F 19.4 °F 74% 29.82 in 7.0 mi West 12.7 mph - 0.00 in Snow Light Snow
2:53 AM 26.1 °F 16.2 °F 21.0 °F 81% 29.88 in 6.0 mi West 10.4 mph 18.4 mph 0.00 in Snow Light Snow
3:53 AM 26.1 °F 15.6 °F 19.9 °F 78% 29.88 in 9.0 mi West 11.5 mph - 0.00 in Snow Light Snow
4:30 AM 26.6 °F 16.2 °F 19.4 °F 74% 29.82 in 10.0 mi West 11.5 mph - 0.00 in   Overcast
4:53 AM 26.1 °F 16.2 °F 19.9 °F 78% 29.89 in 10.0 mi West 10.4 mph - 0.00 in   Overcast
5:53 AM 27.0 °F 16.7 °F 19.9 °F 75% 29.89 in 10.0 mi West 11.5 mph - N/A   Overcast
6:39 AM 26.6 °F 17.5 °F 19.4 °F 74% 29.83 in 9.0 mi West 9.2 mph - 0.00 in Snow Light Snow
6:53 AM 26.1 °F 16.8 °F 19.9 °F 78% 29.89 in 10.0 mi West 9.2 mph - 0.00 in   Overcast
7:53 AM 27.0 °F 19.5 °F 21.0 °F 78% 29.88 in 10.0 mi WSW 6.9 mph - N/A   Overcast
8:53 AM 28.0 °F 20.0 °F 21.0 °F 75% 29.88 in 10.0 mi WSW 8.1 mph - 0.00 in   Overcast
9:14 AM 28.4 °F 19.7 °F 21.2 °F 74% 29.82 in 10.0 mi WSW 9.2 mph - N/A   Overcast
9:27 AM 28.4 °F 19.1 °F 21.2 °F 74% 29.83 in 10.0 mi WSW 10.4 mph - N/A   Overcast
9:53 AM 28.9 °F 20.4 °F 21.9 °F 75% 29.88 in 10.0 mi WSW 9.2 mph - N/A   Overcast
10:29 AM 30.2 °F 20.2 °F 21.2 °F 69% 29.82 in 10.0 mi WSW 12.7 mph 18.4 mph N/A   Overcast
10:53 AM 30.9 °F 22.8 °F 21.9 °F 69% 29.86 in 10.0 mi WSW 9.2 mph 18.4 mph N/A   Overcast
11:53 AM 30.0 °F 20.5 °F 19.0 °F 64% 29.84 in 10.0 mi WSW 11.5 mph 19.6 mph N/A   Scattered Clouds
12:53 PM 30.0 °F 21.1 °F 15.1 °F 54% 29.82 in 10.0 mi WSW 10.4 mph - N/A   Mostly Cloudy
1:53 PM 32.0 °F 22.5 °F 14.0 °F 48% 29.80 in 10.0 mi WSW 12.7 mph - N/A   Clear
2:53 PM 33.1 °F 23.9 °F 12.9 °F 43% 29.80 in 10.0 mi West 12.7 mph - N/A   Clear
3:53 PM 32.0 °F 24.2 °F 12.0 °F 44% 29.82 in 10.0 mi West 9.2 mph - N/A   Clear
4:53 PM 30.0 °F 21.7 °F 12.0 °F 47% 29.84 in 10.0 mi WSW 9.2 mph - N/A   Clear
5:53 PM 28.0 °F 20.8 °F 12.0 °F 51% 29.86 in 10.0 mi West 6.9 mph - N/A   Clear
6:53 PM 28.9 °F 21.1 °F 14.0 °F 54% 29.88 in 10.0 mi WSW 8.1 mph - N/A   Overcast
7:53 PM 28.9 °F 21.1 °F 15.1 °F 56% 29.89 in 10.0 mi WSW 8.1 mph - N/A   Overcast
8:53 PM 30.0 °F 22.4 °F 17.1 °F 59% 29.91 in 10.0 mi WNW 8.1 mph - N/A   Overcast
9:53 PM 30.0 °F 21.7 °F 18.0 °F 61% 29.92 in 10.0 mi West 9.2 mph - N/A   Overcast
10:53 PM 30.0 °F 21.1 °F 19.0 °F 64% 29.93 in 10.0 mi West 10.4 mph - N/A   Overcast
11:53 PM 30.0 °F 22.4 °F 19.0 °F 64% 29.95 in 10.0 mi West 8.1 mph - N/A   Overcast